This demonstration page uses our WeatherBlox Daily Observations layout. Learn more.

Left ArrowRight Arrow

41.12389, -100.76542

Hourly Observations for February 12, 2017

Temp ( °F °C ) Dew Point ( °F °C ) Humidity (%) Winds ( mph kmh ) Pressure ( in mb ) Visibility ( mi km ) Precip ( " mm )
12:53 am 00:53 Clear 35 1.7 23 -5 61 61 NNW 9 15 30.36 1028 10 16 0.00 0.00
1:53 am 01:53 Clear 35 1.7 22 -5.6 59 59 N 15 24 30.39 1029 10 16 0.00 0.00
2:53 am 02:53 Clear 34 1.1 22 -5.6 61 61 NNW 15 24 30.41 1030 10 16 0.00 0.00
3:53 am 03:53 Clear 30 -1.1 22 -5.6 72 72 NW 9 15 30.44 1031 10 16 0.00 0.00
4:53 am 04:53 Clear 28 -2.2 21 -6.1 75 75 NW 9 15 30.48 1032 10 16 0.00 0.00
5:53 am 05:53 Clear 23 -5 18 -7.8 81 81 NW 8 13 30.51 1033 10 16 0.00 0.00
6:53 am 06:53 Clear 22 -5.6 18 -7.8 85 85 WNW 9 15 30.55 1035 10 16 0.00 0.00
7:53 am 07:53 Sunny 21 -6.1 17 -8.3 85 85 WNW 6 9 30.58 1036 10 16 0.00 0.00
8:53 am 08:53 Sunny 26 -3.3 21 -6.1 81 81 W 7 11 30.59 1036 10 16 0.00 0.00
9:53 am 09:53 Sunny 30 -1.1 21 -6.1 69 69 W 8 13 30.60 1036 10 16 0.00 0.00
10:53 am 10:53 Sunny 36 2.2 20 -6.7 52 52 W 8 13 30.60 1036 10 16 0.00 0.00
11:53 am 11:53 Sunny 42 5.6 14 -10 32 32 W 7 11 30.60 1036 10 16 0.00 0.00
12:53 pm 12:53 Sunny 45 7.2 14 -10 29 29 WSW 7 11 30.56 1035 10 16 0.00 0.00
1:53 pm 13:53 Sunny 47 8.3 16 -8.9 29 29 WSW 9 15 30.53 1034 10 16 0.00 0.00
2:53 pm 14:53 Sunny 48 8.9 15 -9.4 27 27 W 9 15 30.50 1033 10 16 0.00 0.00
3:53 pm 15:53 Sunny 48 8.9 12 -11.1 23 23 W 8 13 30.49 1033 10 16 0.00 0.00
4:53 pm 16:53 Sunny 47 8.3 11 -11.7 23 23 SSW 7 11 30.48 1032 10 16 0.00 0.00
5:53 pm 17:53 Sunny 43 6.1 12 -11.1 28 28 S 5 7 30.49 1032 10 16 0.00 0.00
6:53 pm 18:53 Clear 30 -1.1 16 -8.9 56 56 S 3 6 30.50 1033 10 16 0.00 0.00
7:53 pm 19:53 Clear 29 -1.7 14 -10 54 54 S 6 9 30.50 1033 10 16 0.00 0.00
8:53 pm 20:53 Clear 28 -2.2 15 -9.4 58 58 S 6 9 30.47 1032 10 16 0.00 0.00
9:53 pm 21:53 Clear 28 -2.2 15 -9.4 58 58 S 7 11 30.45 1031 10 16 0.00 0.00
10:53 pm 22:53 Clear 23 -5 15 -9.4 72 72 S 5 7 30.43 1030 10 16 0.00 0.00
11:53 pm 23:53 Clear 26 -3.3 15 -9.4 63 63 SSE 7 11 30.39 1029 10 16 0.00 0.00

Powered by AerisWeather